This is the latest recevied weather packets stored in our database for station/object AD8PA-13. If no packets are shown the sender has not sent any weather packets the latest 10 day(s).
| Time | Temp. | Humidity | Pressure | Rain* | Wind** | Luminosity | Snow |
|---|---|---|---|---|---|---|---|
| 1777509075 | 8.33° C | 90% | 1012.2 hPa | 0 mm | - | - | - |
| 1777508172 | 8.33° C | 88% | 1012 hPa | 0 mm | - | - | - |
| 1777507269 | 8.89° C | 86% | 1011.7 hPa | 0 mm | - | - | - |
| 1777506365 | 9.44° C | 90% | 1011.5 hPa | 0 mm | - | - | - |
| 1777505466 | 9.44° C | 88% | 1011.7 hPa | 0 mm | - | - | - |
| 1777504562 | 9.44° C | 88% | 1011.6 hPa | 0 mm | - | - | - |
| 1777503661 | 9.44° C | 87% | 1011.8 hPa | 0 mm | - | - | - |
| 1777502758 | 9.44° C | 86% | 1011.7 hPa | 0 mm | - | - | - |
| 1777501855 | 10° C | 86% | 1011.7 hPa | 0 mm | - | - | - |
| 1777500953 | 10° C | 88% | 1011.5 hPa | 0 mm | - | - | - |
| 1777500048 | 10° C | 87% | 1011.5 hPa | 0 mm | - | - | - |
| 1777499146 | 10° C | 87% | 1011.5 hPa | 0 mm | - | - | - |
| 1777498246 | 10° C | 87% | 1011.3 hPa | 0 mm | - | - | - |
| 1777497343 | 10° C | 87% | 1011.4 hPa | 0 mm | - | - | - |
| 1777496438 | 10° C | 86% | 1011.4 hPa | 0 mm | - | - | - |
| 1777495533 | 10.56° C | 83% | 1011.3 hPa | 1.78 mm | - | - | - |
| 1777494630 | 10.56° C | 79% | 1011.5 hPa | 0 mm | - | - | - |
| 1777493727 | 10.56° C | 78% | 1011.3 hPa | 0 mm | - | - | - |
| 1777492823 | 10.56° C | 79% | 1011.4 hPa | 0 mm | - | - | - |
| 1777491919 | 10.56° C | 78% | 1011.3 hPa | 0 mm | - | - | - |
| 1777491016 | 10.56° C | 77% | 1011.4 hPa | 0 mm | - | - | - |
| 1777490116 | 11.11° C | 78% | 1011.6 hPa | 0 mm | - | - | - |
| 1777489213 | 11.11° C | 77% | 1011.5 hPa | 0 mm | - | - | - |
| 1777488310 | 10.56° C | 79% | 1011.7 hPa | 0 mm | - | - | - |
| 1777487410 | 11.11° C | 78% | 1011.6 hPa | 0 mm | - | - | - |
* Rain latest hour (hover to see other rain measurements)
** Current wind speed in m/s (hover to see current wind gust speed)